This demonstration page uses our WeatherBlox Daily Observations layout. Learn more.

Left ArrowRight Arrow

31.84235, -102.49876

Hourly Observations for August 8, 2017

Temp ( °F °C ) Dew Point ( °F °C ) Humidity (%) Winds ( mph kmh ) Pressure ( in mb ) Visibility ( mi km ) Precip ( " mm )
12:02 am 00:02 Mostly Cloudy 76 24.4 68 20 77 77 E 16 26 29.97 1015 10 16 0.00 0.00
12:49 am 00:49 Mostly Cloudy 73 23 68 20 83 83 ENE 15 24 29.97 1015 10 16 0.00 0.00
12:53 am 00:53 Mostly Cloudy 74 23.3 68 20 82 82 ENE 15 24 30.00 1016 10 16 0.00 0.00
1:37 am 01:37 Cloudy 74 23.3 69 20.6 85 85 ENE 13 20 29.97 1015 10 16 0.00 0.00
1:53 am 01:53 Cloudy 74 23.3 69 20.6 85 85 ENE 13 20 30.01 1016 10 16 0.00 0.00
2:53 am 02:53 Cloudy 74 23.3 69 20.6 85 85 E 10 17 29.98 1015 10 16 0.00 0.00
3:53 am 03:53 Cloudy 74 23.3 69 20.6 85 85 ENE 14 22 29.99 1016 10 16 0.00 0.00
4:53 am 04:53 Cloudy 72 22.2 70 21.1 94 94 ENE 13 20 29.99 1016 9 14 0.00 0.03
5:53 am 05:53 Cloudy 72 22.2 69 20.6 91 91 ENE 12 19 30.00 1016 8 13 0.00 0.00
6:53 am 06:53 Cloudy 72 22.2 68 20 87 87 ENE 9 15 30.01 1016 9 14 0.00 0.00
7:53 am 07:53 Cloudy 72 22.2 68 20 87 87 ENE 13 20 30.04 1017 9 14 0.00 0.00
8:53 am 08:53 Cloudy 71 21.7 68 20 90 90 E 13 20 30.06 1018 7 11 0.00 0.00
9:04 am 09:04 Cloudy with Mist and Fog 71 21.7 68 20 90 90 E 12 19 30.06 1018 6 10 0.00 0.00
9:42 am 09:42 Cloudy 73 22.8 68 20 84 84 E 10 17 30.06 1018 8 13 0.00 0.00
9:53 am 09:53 Cloudy 73 22.8 68 20 84 84 E 12 19 30.06 1018 8 13 0.00 0.00
10:49 am 10:49 Cloudy 73 23 66 19 78 78 ENE 10 17 30.06 1018 9 14 0.00 0.00
10:53 am 10:53 Cloudy 74 23.3 68 20 82 82 ENE 12 19 30.06 1018 9 14 0.00 0.00
11:07 am 11:07 Cloudy 74 23.3 68 20 82 82 E 10 17 30.06 1018 10 16 0.00 0.00
11:53 am 11:53 Cloudy 75 23.9 67 19.4 76 76 ENE 10 17 30.07 1018 10 16 0.00 0.00
12:53 pm 12:53 Cloudy 78 25.6 67 19.4 69 69 E 8 13 30.07 1018 10 16 0.00 0.00
1:02 pm 13:02 Cloudy 78 25.6 67 19.4 69 69 ESE 9 15 30.03 1017 10 16 0.00 0.00
1:53 pm 13:53 Mostly Cloudy 81 27.2 66 18.9 61 61 E 10 17 30.04 1017 10 16 0.00 0.00
2:53 pm 14:53 Mostly Sunny 83 28.3 65 18.3 55 55 ENE 8 13 30.01 1016 10 16 0.00 0.00
3:53 pm 15:53 Mostly Cloudy 85 29.4 64 17.8 50 50 ENE 10 17 29.99 1016 10 16 0.00 0.00
4:53 pm 16:53 Mostly Cloudy 84 28.9 64 17.8 51 51 E 8 13 29.98 1015 10 16 0.00 0.00
5:53 pm 17:53 Partly Cloudy 84 28.9 63 17.2 49 49 E 12 19 29.96 1015 10 16 0.00 0.00
6:53 pm 18:53 Sunny 85 29.4 63 17.2 48 48 E 10 17 29.95 1014 10 16 0.00 0.00
7:53 pm 19:53 Sunny 84 28.9 62 16.7 48 48 E 9 15 29.95 1014 10 16 0.00 0.00
8:53 pm 20:53 Clear 80 26.7 63 17.2 56 56 E 7 11 29.96 1015 10 16 0.00 0.00
9:53 pm 21:53 Clear 77 25 64 17.8 64 64 E 7 11 29.99 1016 10 16 0.00 0.00
10:53 pm 22:53 Clear 77 25 63 17.2 62 62 ESE 8 13 30.00 1016 10 16 0.00 0.00
11:53 pm 23:53 Clear 76 24.4 65 18.3 69 69 SE 9 15 30.01 1016 10 16 0.00 0.00

Powered by AerisWeather